Regional Weather Roundup
Issued by NWS

Home | Current Version | Previous Version | Graphics & Text | Print | Product List | Glossary On
Versions: 1 2 3 4 5 6 7 8 9 10 11 12 13 14 15 16 17 18 19 20 21 22 23 24 25 26 27 28 29 30 31 32 33 34 35 36 37 38 39 40 41 42 43 44 45 46 47 48 49 50
000
ASUS43 KBIS 221620
RWRND

NORTH DAKOTA REGIONAL WEATHER ROUNDUP
NATIONAL WEATHER SERVICE BISMARCK ND
1100 AM CDT TUE APR 22 2014

NOTE: "FAIR" INDICATES FEW OR NO CLOUDS BELOW 12,000 FEET WITH NO
SIGNIFICANT WEATHER AND/OR OBSTRUCTIONS TO VISIBILITY.


NDZ001>003-009>011-017-221700-
NORTHWEST NORTH DAKOTA

CITY           SKY/WX    TMP DP  RH WIND       PRES   REMARKS
WILLISTON      MOSUNNY   60  27  28 SE21G28   29.89F
MINOT          SUNNY     56  33  42 E10       29.99F
MINOT AFB      SUNNY     54  38  54 SE12      29.99
$$

NDZ018>021-031>035-040>046-221700-
SOUTHWEST NORTH DAKOTA

CITY           SKY/WX    TMP DP  RH WIND       PRES   REMARKS
BISMARCK       PTSUNNY   56  33  42 SE14      29.99F
DICKINSON      PTSUNNY   60  28  29 SE25G33   29.88F
GARRISON         N/A     56  34  43 SE12      29.97F
HETTINGER ARPT SUNNY     57  32  38 SE18G30   29.89F
$$

NDZ004>008-012>016-024-026-027-054-221700-
NORTHEAST NORTH DAKOTA

CITY           SKY/WX    TMP DP  RH WIND       PRES   REMARKS
GRAND FORKS    MOSUNNY   51  36  56 SE8       30.11F
GRND FRKS AFB  SUNNY     52  37  56 SE8       30.11F
DEVILS LAKE    PTSUNNY   52  34  50 SE8       30.07S
$$

NDZ022-023-025-028>030-036>039-047>053-221700-
SOUTHEAST NORTH DAKOTA

CITY           SKY/WX    TMP DP  RH WIND       PRES   REMARKS
FARGO          PTSUNNY   53  34  48 CALM      30.12F
JAMESTOWN      PTSUNNY   55  32  41 S12       30.06F
$$




USA.gov is the U.S. government's official web portal to all federal, state and local government web resources and services.